Weather History for Air Force Academy, CO

Change the Weather History Date:

Wednesday, April 10, 2013

  Actual Average Record
Temperature  
Mean Temperature 16 °F -  
Max Temperature 28 °F 52 °F 71 °F (2006)
Min Temperature 3 °F 28 °F 3 °F (2013)
Degree Days  
Heating Degree Days 50    
Moisture  
Dew Point 5 °F    
Average Humidity 68    
Maximum Humidity 85    
Minimum Humidity 48    
Precipitation  
Precipitation 0.00 in - - ()
Sea Level Pressure  
Sea Level Pressure 30.08 in    
Wind  
Wind Speed 16 mph (North)    
Max Wind Speed 24 mph    
Max Gust Speed 30 mph    
Visibility 10 miles    
Events Snow    
Averages and records for this station are not official NWS values.
T = Trace of Precipitation, MM = Missing Value Source: NWS Daily Summary

Daily Weather History Graph

Daily Weather History Graph

Search for Another Location

Airport:

Trip Planner

Search our weather history database for the weather conditions in past years. The results will help you decide how hot, cold, wet, or windy it might be!

Date:

Astronomy

Apr. 10, 2013 Rise Set
Actual Time 6:29 AM MDT 7:31 PM MDT
Civil Twilight 6:02 AM MDT 7:59 PM MDT
Nautical Twilight 5:29 AM MDT 8:31 PM MDT
Astronomical Twilight 4:56 AM MDT 9:05 PM MDT
Moon 6:27 AM MDT (4/10) 8:09 PM MDT (4/10)
Length of Visible Light 13h 56m
Length of Day
13h 02m
New Moon, 0% of the Moon is Illuminated
Apr 10
New Moon
Apr 18
First Quarter
Apr 25
Full
May 2
Last Quarter
May 9
New

Hourly Weather History & Observations

Time (MDT) Temp. Windchill Dew Point Humidity Pressure Visibility Wind Dir Wind Speed Gust Speed Precip Events Conditions
12:04 AM 8.6 °F -10.5 °F 1.4 °F 73% 29.99 in 10.0 mi NNW 19.6 mph 27.6 mph N/A   Overcast
12:05 AM 8.6 °F -10.5 °F 1.4 °F 73% 29.99 in 10.0 mi NNW 19.6 mph 27.6 mph N/A   Light Freezing Rain
12:15 AM 8.6 °F -11.9 °F 1.4 °F 73% 29.98 in 10.0 mi NNW 23.0 mph 27.6 mph N/A   Light Freezing Rain
12:18 AM 8.6 °F -12.3 °F 1.4 °F 73% 29.98 in 10.0 mi NNW 24.2 mph 29.9 mph N/A   Overcast
12:28 AM 8.6 °F -11.9 °F 1.4 °F 73% 29.99 in 10.0 mi North 23.0 mph 29.9 mph N/A   Overcast
12:58 AM 7.7 °F -10.1 °F 0.9 °F 74% 30.27 in 10.0 mi North 16.1 mph - 0.00 in   Mostly Cloudy
1:17 AM 6.8 °F -11.8 °F 1.4 °F 79% 30.02 in 10.0 mi North 17.3 mph 23.0 mph N/A Snow Light Snow
1:20 AM 6.8 °F -11.3 °F 1.4 °F 79% 30.01 in 10.0 mi North 16.1 mph 23.0 mph N/A   Overcast
1:21 AM 6.8 °F -11.8 °F 1.4 °F 79% 30.01 in 10.0 mi North 17.3 mph 23.0 mph N/A Snow Light Snow
1:27 AM 6.8 °F -10.7 °F 1.4 °F 79% 30.02 in 10.0 mi NNW 15.0 mph 21.9 mph N/A   Overcast
1:43 AM 6.8 °F -11.3 °F 1.4 °F 79% 30.01 in 10.0 mi NNW 16.1 mph - N/A Snow Light Snow
1:53 AM 8.6 °F -9.5 °F 1.4 °F 73% 30.01 in 9.0 mi North 17.3 mph - N/A Snow Light Snow
1:55 AM 6.8 °F -11.8 °F 1.4 °F 79% 30.00 in 9.0 mi North 17.3 mph - N/A   Overcast
1:58 AM 7.7 °F -11.2 °F 1.2 °F 75% 30.25 in 9.0 mi NNW 18.4 mph - 0.00 in   Overcast
2:11 AM 6.8 °F -11.8 °F 1.4 °F 79% 30.00 in 10.0 mi NNW 17.3 mph - N/A Snow Light Snow
2:33 AM 6.8 °F -11.8 °F -0.4 °F 72% 29.99 in 10.0 mi NNW 17.3 mph - N/A   Mostly Cloudy
2:43 AM 6.8 °F -10.0 °F -0.4 °F 72% 29.98 in 10.0 mi NNW 13.8 mph - N/A   Scattered Clouds
2:58 AM 7.0 °F -11.0 °F -0.2 °F 72% 30.23 in 10.0 mi NNW 16.1 mph 23.0 mph 0.00 in   Partly Cloudy
3:58 AM 5.9 °F -12.4 °F -1.5 °F 72% 30.27 in 10.0 mi North 16.1 mph - N/A   Clear
4:58 AM 4.8 °F -9.3 °F -2.2 °F 73% 30.25 in 10.0 mi NNW 9.2 mph - N/A   Clear
5:58 AM 3.9 °F -8.2 °F -2.6 °F 74% 30.27 in 10.0 mi NNW 6.9 mph - N/A   Clear
6:58 AM 5.2 °F -8.9 °F -1.7 °F 73% 30.26 in 10.0 mi NNW 9.2 mph - N/A   Clear
7:58 AM 8.1 °F -4.3 °F -0.4 °F 68% 30.23 in 10.0 mi North 8.1 mph - N/A   Mostly Cloudy
8:58 AM 17.8 °F 5.2 °F 4.1 °F 55% 30.20 in 10.0 mi North 11.5 mph - N/A   Scattered Clouds
9:58 AM 17.8 °F 1.9 °F 5.0 °F 57% 30.20 in 10.0 mi North 18.4 mph - N/A   Clear
10:58 AM 23.2 °F 9.4 °F 6.4 °F 49% 30.17 in 10.0 mi North 17.3 mph 26.5 mph N/A   Clear
11:58 AM 24.6 °F 13.2 °F 9.7 °F 53% 30.15 in 10.0 mi North 12.7 mph - N/A   Partly Cloudy
12:58 PM 25.7 °F 15.1 °F 10.8 °F 53% 30.13 in 10.0 mi NNE 11.5 mph - N/A   Clear
1:58 PM 27.3 °F 19.1 °F 10.0 °F 48% 30.12 in 10.0 mi NNE 8.1 mph 17.3 mph N/A   Partly Cloudy
2:58 PM 28.0 °F 19.3 °F 10.8 °F 48% 30.11 in 10.0 mi North 9.2 mph 17.3 mph N/A   Mostly Cloudy
3:58 PM 27.3 °F 15.6 °F 13.1 °F 55% 30.10 in 10.0 mi NNE 15.0 mph 20.7 mph N/A   Mostly Cloudy
4:04 PM 28.4 °F 17.0 °F 14.0 °F 55% 29.89 in 10.0 mi North 15.0 mph - N/A Snow Light Snow Showers
4:52 PM 24.8 °F 12.4 °F 12.2 °F 59% 29.89 in 10.0 mi NNE 15.0 mph - N/A   Scattered Clouds
4:58 PM 24.8 °F 12.4 °F 12.4 °F 59% 30.10 in 10.0 mi NNE 15.0 mph - 0.00 in   Scattered Clouds
5:08 PM 24.8 °F 12.9 °F 12.2 °F 59% 29.89 in 10.0 mi North 13.8 mph 20.7 mph N/A   Clear
5:58 PM 24.6 °F 13.8 °F 11.7 °F 58% 30.12 in 10.0 mi NNW 11.5 mph - N/A   Mostly Cloudy
6:45 PM 24.8 °F 14.0 °F 12.2 °F 59% 29.88 in 10.0 mi North 11.5 mph - N/A   Scattered Clouds
6:58 PM 23.9 °F 13.5 °F 12.4 °F 62% 30.11 in 10.0 mi North 10.4 mph - 0.00 in   Partly Cloudy
7:14 PM 23.0 °F 13.1 °F 12.2 °F 63% 29.89 in 10.0 mi North 9.2 mph - N/A   Partly Cloudy
7:58 PM 21.2 °F 11.7 °F 11.7 °F 67% 30.10 in 10.0 mi North 8.1 mph - 0.00 in   Scattered Clouds
8:58 PM 19.8 °F 11.9 °F 11.7 °F 71% 30.08 in 10.0 mi North 5.8 mph - N/A   Partly Cloudy
9:58 PM 16.5 °F 6.9 °F 11.3 °F 80% 30.11 in 10.0 mi North 6.9 mph - N/A   Clear
10:58 PM 14.9 °F 7.5 °F 10.6 °F 83% 30.06 in 10.0 mi North 4.6 mph - N/A   Clear
11:58 PM 12.6 °F 1.1 °F 8.8 °F 85% 30.04 in 10.0 mi North 8.1 mph - N/A   Clear